O'Neill, NE

2:45 PM CDT on March 27, 2017 (GMT -0500)
The O'Neill Municipal-Baker

Weather History for KONL - January, 2014

Change the Weather History Date:

Wednesday, January 29, 2014

  Actual Average Record
Temperature  
Mean Temperature 28 °F -  
Max Temperature 54 °F 32 °F 107 °F (1999)
Min Temperature 1 °F 10 °F -28 °F (1966)
Degree Days  
Heating Degree Days 38    
Moisture  
Dew Point 0 °F    
Average Humidity 39    
Maximum Humidity 68    
Minimum Humidity 11    
Precipitation  
Precipitation 0.00 in - - ()
Sea Level Pressure  
Sea Level Pressure 29.75 in    
Wind  
Wind Speed 9 mph (SSW)    
Max Wind Speed 16 mph    
Max Gust Speed 21 mph    
Visibility 10 miles    
Events      
Averages and records for this station are not official NWS values.
T = Trace of Precipitation, MM = Missing Value Source: NWS Daily Summary

Daily Weather History Graph

Daily Weather History Graph

Search for Another Location

Airport or City:

Trip Planner

Search our weather history database for the weather conditions in past years. The results will help you decide how hot, cold, wet, or windy it might be!

Date:

Astronomy

Jan. 29, 2014 Rise Set
Actual Time 7:51 AM CST 5:44 PM CST
Civil Twilight 7:21 AM CST 6:14 PM CST
Nautical Twilight 6:47 AM CST 6:48 PM CST
Astronomical Twilight 6:14 AM CST 7:21 PM CST
Moon 6:29 AM CST (1/29) 4:46 PM CST (1/29)
Length of Visible Light 10h 53m
Length of Day
9h 53m
Waning Crescent, 2% of the Moon is Illuminated
Jan 29
Waning Crescent
Jan 30
New
Feb 6
First Quarter
Feb 14
Full
Feb 22
Last Quarter

Hourly Weather History & Observations

Time (CST) Temp. Windchill Dew Point Humidity Pressure Visibility Wind Dir Wind Speed Gust Speed Precip Events Conditions
12:15 AM 1.2 °F -11.5 °F -7.1 °F 68% 30.09 in 10.0 mi SSW 6.9 mph - N/A   Clear
12:35 AM 1.8 °F -10.8 °F -6.5 °F 68% 30.09 in 10.0 mi SSW 6.9 mph - N/A   Clear
12:55 AM 1.8 °F -10.8 °F -6.9 °F 67% 30.08 in 10.0 mi SSW 6.9 mph - N/A   Clear
1:15 AM 2.8 °F -8.2 °F -6.3 °F 66% 30.07 in 10.0 mi SSW 5.8 mph - N/A   Clear
1:35 AM 2.5 °F -11.1 °F -6.3 °F 67% 30.06 in 10.0 mi South 8.1 mph - N/A   Clear
1:55 AM 3.0 °F -9.3 °F -6.2 °F 66% 30.05 in 10.0 mi South 6.9 mph - N/A   Clear
2:15 AM 2.3 °F -10.2 °F -6.7 °F 66% 30.05 in 10.0 mi South 6.9 mph - N/A   Clear
2:35 AM 2.1 °F -10.4 °F -6.5 °F 67% 30.04 in 10.0 mi South 6.9 mph - N/A   Clear
2:55 AM 2.7 °F -10.9 °F -6.3 °F 66% 30.03 in 10.0 mi South 8.1 mph - N/A   Clear
3:15 AM 3.2 °F -10.3 °F -5.8 °F 66% 30.01 in 10.0 mi South 8.1 mph - N/A   Clear
3:35 AM 3.0 °F -11.5 °F -5.8 °F 67% 30.00 in 10.0 mi South 9.2 mph - N/A   Clear
3:55 AM 2.8 °F -11.7 °F -5.8 °F 67% 29.99 in 10.0 mi South 9.2 mph - N/A   Clear
4:15 AM 3.0 °F -10.5 °F -5.8 °F 67% 29.97 in 10.0 mi South 8.1 mph - N/A   Clear
4:35 AM 2.3 °F -10.2 °F -6.2 °F 68% 29.97 in 10.0 mi South 6.9 mph - N/A   Clear
4:55 AM 2.7 °F -10.9 °F -5.8 °F 68% 29.95 in 10.0 mi SSW 8.1 mph - N/A   Clear
5:15 AM 3.4 °F -10.0 °F -5.4 °F 67% 29.95 in 10.0 mi SSW 8.1 mph - N/A   Clear
5:35 AM 3.2 °F -10.3 °F -5.3 °F 68% 29.93 in 10.0 mi South 8.1 mph - N/A   Clear
5:55 AM 3.7 °F -9.6 °F -4.9 °F 67% 29.92 in 10.0 mi South 8.1 mph - N/A   Clear
6:15 AM 4.6 °F -9.5 °F -4.5 °F 66% 29.91 in 10.0 mi South 9.2 mph - N/A   Clear
6:35 AM 4.3 °F -10.0 °F -4.9 °F 66% 29.89 in 10.0 mi South 9.2 mph - N/A   Clear
6:55 AM 4.6 °F -9.5 °F -4.4 °F 66% 29.88 in 10.0 mi South 9.2 mph - N/A   Clear
7:15 AM 5.4 °F -9.6 °F -4.0 °F 65% 29.88 in 10.0 mi South 10.4 mph - N/A   Clear
7:35 AM 5.0 °F -9.1 °F -3.8 °F 67% 29.88 in 10.0 mi South 9.2 mph - N/A   Clear
7:55 AM 6.4 °F -9.0 °F -2.6 °F 67% 29.87 in 10.0 mi SSW 11.5 mph - N/A   Clear
8:15 AM 8.6 °F -6.3 °F -1.1 °F 65% 29.87 in 10.0 mi SSW 11.5 mph - N/A   Clear
8:35 AM 11.3 °F -2.9 °F 0.9 °F 63% 29.87 in 10.0 mi SSW 11.5 mph - N/A   Clear
8:55 AM 13.8 °F -0.5 °F 2.7 °F 61% 29.85 in 10.0 mi SSW 12.7 mph - N/A   Clear
9:15 AM 16.3 °F 4.1 °F 4.3 °F 59% 29.85 in 10.0 mi SSW 10.4 mph - N/A   Clear
9:35 AM 19.8 °F 7.1 °F 5.9 °F 55% 29.84 in 10.0 mi SSW 12.7 mph - N/A   Clear
9:55 AM 23.4 °F 11.1 °F 6.3 °F 48% 29.83 in 10.0 mi SSW 13.8 mph - N/A   Clear
10:15 AM 26.1 °F 14.5 °F 5.2 °F 41% 29.82 in 10.0 mi SSW 13.8 mph 17.3 mph N/A   Clear
10:35 AM 28.8 °F 18.4 °F 4.5 °F 36% 29.81 in 10.0 mi SW 12.7 mph - N/A   Clear
10:55 AM 32.2 °F 22.7 °F 3.2 °F 29% 29.81 in 10.0 mi SW 12.7 mph - N/A   Clear
11:15 AM 35.1 °F 25.5 °F 2.8 °F 26% 29.80 in 10.0 mi SW 15.0 mph 18.4 mph N/A   Clear
11:35 AM 37.4 °F 29.3 °F 2.1 °F 23% 29.78 in 10.0 mi SSW 12.7 mph - N/A   Clear
11:55 AM 39.9 °F 32.9 °F 2.1 °F 21% 29.77 in 10.0 mi SW 11.5 mph - N/A   Clear
12:15 PM 42.6 °F 36.3 °F 0.1 °F 17% 29.75 in 10.0 mi SSW 11.5 mph - N/A   Clear
12:35 PM 45.9 °F 40.0 °F -0.9 °F 14% 29.74 in 10.0 mi SW 12.7 mph - N/A   Clear
12:55 PM 46.2 °F 39.5 °F -1.5 °F 14% 29.72 in 10.0 mi SW 16.1 mph - N/A   Clear
1:15 PM 47.3 °F - -2.6 °F 13% 29.71 in 10.0 mi WSW 16.1 mph - N/A   Clear
1:35 PM 48.4 °F - -3.6 °F 12% 29.70 in 10.0 mi SW 15.0 mph 19.6 mph N/A   Clear
1:55 PM 49.6 °F - -3.3 °F 11% 29.69 in 10.0 mi WSW 16.1 mph - N/A   Clear
2:15 PM 49.8 °F - -3.1 °F 11% 29.67 in 10.0 mi WSW 12.7 mph 20.7 mph N/A   Clear
2:35 PM 50.9 °F - -2.7 °F 11% 29.66 in 10.0 mi WSW 16.1 mph 20.7 mph N/A   Clear
2:55 PM 51.3 °F - -2.2 °F 11% 29.65 in 10.0 mi WSW 15.0 mph - N/A   Clear
3:15 PM 52.2 °F - -1.8 °F 11% 29.64 in 10.0 mi SW 9.2 mph - N/A   Clear
3:35 PM 53.6 °F - 0.7 °F 12% 29.63 in 10.0 mi WSW 16.1 mph 19.6 mph N/A   Clear
3:55 PM 54.0 °F - 3.4 °F 13% 29.62 in 10.0 mi WSW 15.0 mph 18.4 mph N/A   Clear
4:15 PM 53.6 °F - 4.8 °F 14% 29.61 in 10.0 mi SW 8.1 mph - N/A   Clear
4:35 PM 52.2 °F - 3.2 °F 14% 29.60 in 10.0 mi SSW 9.2 mph - N/A   Clear
4:55 PM 51.8 °F - 3.9 °F 14% 29.59 in 10.0 mi SSW 9.2 mph - N/A   Clear
5:15 PM 49.6 °F - 4.3 °F 16% 29.58 in 10.0 mi SSW 6.9 mph - N/A   Clear
5:35 PM 47.5 °F - 5.4 °F 18% 29.57 in 10.0 mi SSW 8.1 mph - N/A   Clear
5:55 PM 45.0 °F 40.1 °F 5.9 °F 20% 29.57 in 10.0 mi SSW 9.2 mph - N/A   Clear
6:15 PM 43.9 °F 38.8 °F 5.9 °F 21% 29.56 in 10.0 mi SSW 9.2 mph - N/A   Clear
6:35 PM 39.4 °F 35.2 °F 5.9 °F 25% 29.57 in 10.0 mi SW 5.8 mph - N/A   Clear
6:55 PM 40.5 °F 35.8 °F 5.2 °F 23% 29.56 in 10.0 mi SSW 6.9 mph - N/A   Clear
7:15 PM 37.8 °F 34.2 °F 5.0 °F 26% 29.55 in 10.0 mi SSW 4.6 mph - N/A   Clear
7:35 PM 36.3 °F 30.1 °F 5.0 °F 27% 29.54 in 10.0 mi SSW 8.1 mph - N/A   Clear
7:55 PM 36.7 °F 30.5 °F 5.2 °F 27% 29.53 in 10.0 mi SSW 8.1 mph - N/A   Clear
8:15 PM 37.0 °F 31.6 °F 5.7 °F 27% 29.52 in 10.0 mi South 6.9 mph - N/A   Clear
8:35 PM 37.4 °F 30.8 °F 5.9 °F 27% 29.50 in 10.0 mi South 9.2 mph - N/A   Clear
8:55 PM 40.8 °F 34.1 °F 5.5 °F 23% 29.49 in 10.0 mi South 11.5 mph - N/A   Clear
9:15 PM 40.5 °F 33.6 °F 5.7 °F 24% 29.48 in 10.0 mi South 11.5 mph - N/A   Clear
9:35 PM 40.3 °F 33.9 °F 5.9 °F 24% 29.46 in 10.0 mi South 10.4 mph - N/A   Mostly Cloudy
9:55 PM 41.4 °F 34.7 °F 5.7 °F 23% 29.44 in 10.0 mi South 11.5 mph - N/A   Overcast
10:15 PM 42.3 °F 35.9 °F 5.0 °F 21% 29.44 in 10.0 mi South 11.5 mph - N/A   Overcast
10:35 PM 42.1 °F 36.1 °F 5.0 °F 22% 29.42 in 10.0 mi South 10.4 mph 17.3 mph N/A   Overcast
10:55 PM 42.6 °F 36.3 °F 5.9 °F 22% 29.41 in 10.0 mi South 11.5 mph - N/A   Overcast
11:15 PM 43.0 °F 37.2 °F 5.9 °F 22% 29.40 in 10.0 mi South 10.4 mph 16.1 mph N/A   Overcast
11:35 PM 42.8 °F 37.0 °F 5.9 °F 22% 29.39 in 10.0 mi South 10.4 mph - N/A   Overcast
11:55 PM 42.8 °F 36.6 °F 5.9 °F 22% 29.37 in 10.0 mi South 11.5 mph - N/A   Overcast